Tel Aviv, Israel

12:02 AM IST on November 21, 2018 (GMT +0200)
Ben Gurion

Weather History for LLBG - September, 2018

Change the Weather History Date:

Friday, September 14, 2018

  Actual Average Record
Temperature  
Mean Temperature 80 °F -  
Max Temperature 85 °F 83 °F 92 °F (2013)
Min Temperature 75 °F 67 °F 66 °F (1997)
Cooling Degree Days 15    
Growing Degree Days 30 (Base 50)    
Moisture  
Dew Point 65 °F    
Average Humidity 57    
Maximum Humidity 73    
Minimum Humidity 35    
Precipitation  
Precipitation 0.00 in - - ()
Sea Level Pressure  
Sea Level Pressure 29.94 in    
Wind  
Wind Speed 5 mph ()    
Max Wind Speed 13 mph    
Max Gust Speed -    
Visibility 6.2 miles    
Events      
Averages and records for this station are not official NWS values.
T = Trace of Precipitation, MM = Missing Value Source: Averaged Metar Reports

Daily Weather History Graph

Daily Weather History Graph

Search for Another Location

Airport or City:

Astronomy

Sep. 14, 2018 Rise Set
Actual Time 6:23 AM IDT 6:48 PM IDT
Civil Twilight 5:59 AM IDT 7:12 PM IDT
Nautical Twilight 5:30 AM IDT 7:41 PM IDT
Astronomical Twilight 5:01 AM IDT 8:10 PM IDT
Moon 11:01 AM IDT (9/14) 10:10 PM IDT (9/14)
Length of Visible Light 13h 13m
Length of Day
12h 24m
Waxing Crescent, 25% of the Moon is Illuminated
Sep 14
Waxing Crescent
Sep 17
First Quarter
Sep 25
Full
Oct 2
Last Quarter
Oct 9
New

Hourly Weather History & Observations

Time (IDT) Temp. Heat Index Dew Point Humidity Pressure Visibility Wind Dir Wind Speed Gust Speed Precip Events Conditions
12:00 AM 80 °F - 67 °F 57% 29.93 in 6 mi NW 6.7 mph - -   Scattered Clouds
12:20 AM 80.6 °F 83.2 °F 68.0 °F 65% 29.92 in 6.2 mi NW 5.8 mph - N/A   Partly Cloudy
12:50 AM 80.6 °F 83.2 °F 68.0 °F 65% 29.92 in 6.2 mi Variable 3.5 mph - N/A   Partly Cloudy
1:20 AM 78.8 °F - 68.0 °F 69% 29.92 in 6.2 mi Variable 3.5 mph - N/A   Partly Cloudy
1:50 AM 80.6 °F 83.2 °F 68.0 °F 65% 29.92 in 6.2 mi Variable 2.3 mph - N/A   Partly Cloudy
2:20 AM 78.8 °F - 68.0 °F 69% 29.92 in 6.2 mi Variable 3.5 mph - N/A   Partly Cloudy
2:50 AM 78.8 °F - 68.0 °F 69% 29.92 in 6.2 mi Variable 3.5 mph - N/A   Partly Cloudy
3:00 AM 78 °F - 67 °F 61% 29.93 in 6 mi SSE 2.2 mph - -   Scattered Clouds
3:20 AM 78.8 °F - 68.0 °F 69% 29.92 in 6.2 mi Variable 2.3 mph - N/A   Partly Cloudy
3:50 AM 77.0 °F - 66.2 °F 69% 29.92 in 6.2 mi Variable 1.2 mph - N/A   Partly Cloudy
4:20 AM 77.0 °F - 66.2 °F 69% 29.92 in 6.2 mi Variable 2.3 mph - N/A   Scattered Clouds
4:50 AM 75.2 °F - 66.2 °F 73% 29.92 in 6.2 mi Variable 1.2 mph - N/A   Scattered Clouds
5:20 AM 77.0 °F - 66.2 °F 69% 29.92 in 6.2 mi Variable 1.2 mph - N/A   Scattered Clouds
5:50 AM 77.0 °F - 66.2 °F 69% 29.92 in 6.2 mi Variable 2.3 mph - N/A   Scattered Clouds
6:20 AM 75.2 °F - 66.2 °F 73% 29.92 in 6.2 mi Variable 3.5 mph - N/A   Partly Cloudy
6:50 AM 75.2 °F - 66.2 °F 73% 29.95 in 6.2 mi SSE 4.6 mph - N/A   Partly Cloudy
7:20 AM 77.0 °F - 66.2 °F 69% 29.95 in 6.2 mi Variable 3.5 mph - N/A   Partly Cloudy
7:50 AM 77.0 °F - 66.2 °F 69% 29.95 in 6.2 mi Variable 3.5 mph - N/A   Partly Cloudy
8:20 AM 78.8 °F - 66.2 °F 65% 29.95 in 6.2 mi Variable 2.3 mph - N/A   Partly Cloudy
8:50 AM 82.4 °F 84.6 °F 66.2 °F 58% 29.95 in 6.2 mi Variable 1.2 mph - N/A   Partly Cloudy
9:00 AM 82 °F - 65 °F 48% 29.96 in 6 mi WSW 2.2 mph - -   Partly Cloudy
9:20 AM 82.4 °F 83.9 °F 64.4 °F 54% 29.95 in 6.2 mi NW 6.9 mph - N/A   Scattered Clouds
9:50 AM 82.4 °F 83.4 °F 62.6 °F 51% 29.95 in 6.2 mi NW 8.1 mph - N/A   Scattered Clouds
10:20 AM 84.2 °F 85.0 °F 62.6 °F 48% 29.98 in 6.2 mi NW 8.1 mph - N/A   Scattered Clouds
10:50 AM 84.2 °F 84.4 °F 60.8 °F 45% 29.95 in 6.2 mi NNW 6.9 mph - N/A   Partly Cloudy
11:20 AM 84.2 °F 84.4 °F 60.8 °F 45% 29.95 in 6.2 mi WNW 8.1 mph - N/A   Partly Cloudy
11:50 AM 86.0 °F 85.4 °F 59.0 °F 40% 29.95 in 6.2 mi NW 9.2 mph - N/A   Partly Cloudy
12:20 PM 86.0 °F 86.1 °F 60.8 °F 43% 29.95 in 6.2 mi NW 11.5 mph - N/A   Partly Cloudy
12:50 PM 86.0 °F 86.6 °F 62.6 °F 45% 29.95 in 6.2 mi NW 11.5 mph - N/A   Partly Cloudy
1:20 PM 86.0 °F 86.6 °F 62.6 °F 45% 29.95 in 6.2 mi WNW 12.7 mph - N/A   Partly Cloudy
1:50 PM 84.2 °F 85.0 °F 62.6 °F 48% 29.95 in 6.2 mi WNW 11.5 mph - N/A   Partly Cloudy
2:20 PM 84.2 °F 85.0 °F 62.6 °F 48% 29.95 in 6.2 mi West 10.4 mph - N/A   Partly Cloudy
2:50 PM 86.0 °F 86.6 °F 62.6 °F 45% 29.92 in 6.2 mi West 11.5 mph - N/A   Partly Cloudy
3:00 PM 85 °F - 62 °F 35% 29.94 in 6 mi WNW 13.4 mph - -   Scattered Clouds
3:20 PM 84.2 °F 85.0 °F 62.6 °F 48% 29.92 in 6.2 mi WNW 12.7 mph - N/A   Partly Cloudy
3:50 PM 86.0 °F 87.3 °F 64.4 °F 48% 29.92 in 6.2 mi WNW 11.5 mph - N/A   Partly Cloudy
4:20 PM 84.2 °F 85.0 °F 62.6 °F 48% 29.92 in 6.2 mi West 11.5 mph - N/A   Partly Cloudy
4:50 PM 84.2 °F 85.6 °F 64.4 °F 51% 29.92 in 6.2 mi NW 10.4 mph - N/A   Partly Cloudy
5:20 PM 84.2 °F 85.6 °F 64.4 °F 51% 29.95 in 6.2 mi WNW 12.7 mph - N/A   Partly Cloudy
5:50 PM 82.4 °F 83.9 °F 64.4 °F 54% 29.95 in 6.2 mi West 12.7 mph - N/A   Scattered Clouds
6:20 PM 82.4 °F 83.9 °F 64.4 °F 54% 29.95 in 6.2 mi WNW 11.5 mph - N/A   Scattered Clouds
6:50 PM 80.6 °F 82.3 °F 64.4 °F 58% 29.95 in 6.2 mi WNW 6.9 mph - N/A   Scattered Clouds
7:20 PM 80.6 °F 82.3 °F 64.4 °F 58% 29.95 in 6.2 mi WNW 8.1 mph - N/A   Scattered Clouds
7:50 PM 80.6 °F 82.3 °F 64.4 °F 58% 29.95 in 6.2 mi WNW 5.8 mph - N/A   Scattered Clouds
8:20 PM 80.6 °F 82.3 °F 64.4 °F 58% 29.95 in 6.2 mi WNW 5.8 mph - N/A   Scattered Clouds
8:50 PM 80.6 °F 82.3 °F 64.4 °F 58% 29.95 in 6.2 mi WNW 5.8 mph - N/A   Scattered Clouds
9:00 PM 81 °F - 65 °F 50% 29.97 in 6 mi NW 6.7 mph - -   Partly Cloudy
9:20 PM 80.6 °F 82.3 °F 64.4 °F 58% 29.98 in 6.2 mi NW 8.1 mph - N/A   Scattered Clouds
9:50 PM 80.6 °F 82.3 °F 64.4 °F 58% 29.98 in 6.2 mi NW 8.1 mph - N/A   Partly Cloudy
10:20 PM 78.8 °F - 62.6 °F 57% 29.95 in 6.2 mi WNW 4.6 mph - N/A   Partly Cloudy
10:50 PM 80.6 °F 82.7 °F 66.2 °F 61% 29.95 in 6.2 mi NW 5.8 mph - N/A   Scattered Clouds
11:20 PM 80.6 °F 82.7 °F 66.2 °F 61% 29.95 in 6.2 mi WNW 4.6 mph - N/A   Scattered Clouds
11:50 PM 78.8 °F - 64.4 °F 61% 29.95 in 6.2 mi NW 5.8 mph - N/A   Partly Cloudy